Tracking 19286 objects as of 19-Nov-2018
HD Live streaming from Space Station
objects crossing your sky now

OPS 6073 (DMSP 4A F2)

Track OPS 6073 (DMSP 4A F2) now!
10-day predictions
OPS 6073 (DMSP 4A F2) is classified as:


NORAD ID: 2669
Int'l Code: 1967-010A
Perigee: 772.6 km
Apogee: 845.3 km
Inclination: 99.0 °
Period: 100.9 minutes
Semi major axis: 7179 km
RCS: 0.6644 m2 (medium)
Launch date: February 8, 1967
Source: United States (US)
Launch site: AIR FORCE WESTERN TEST RANGE (AFWTR)
aabbcc
Your satellite tracking list
Your tracking list is empty




NASA's NSSDC Master Catalog

Two Line Element Set (TLE):
1  2669U 67010A   18321.86316280 -.00000013 +00000-0 +13562-4 0  9992
2  2669 098.9849 205.0993 0050656 106.7034 253.9713 14.26997998689404
Source of the keplerian elements: AFSPC